Content
SEND FEEDBACK

Daily
Averages
Monthly
Summary
United States of America

MANISTIQUE, MICHIGAN


Home > North America > United States > Michigan
Elevation: 610 feet     Latitude: 45 58N     Longitude: 086 15W

WEATHER
 
SELECT A DAY
Number of Records: 417,343;   Date Range: 5/11/98 - 10/23/14
 
SHARE

PRINT THIS DATA

[ ← Previous Day ]
WEATHER ALMANAC - APRIL 28, 2014
[ Next Day → ]
[ °C ]   °F
Weather ElementAverageHighLow
Temperature45.3 °F50.9 °F (1:15 pm)39.2 °F (5:55 am)
Dewpoint23.5 °F25.2 °F (12:35 am)21.2 °F (3:15 am)
Humidity42.6 %53 % (12:35 am)32 % (3:55 pm)
Barometer30.06 in30.15 in (12:35 am)29.93 in (8:34 pm)
Wind Speed15.9 mph27.6 mph (2:34 pm)
Wind Gust43.7 mph (3:15 pm)
Weather ElementAverage
Visibility10 mi
Wind DirectionENE (83.9 °)

Weather ElementTotal
Precipitation---
Heating Degree Days20 (Base 65)
Averaged from 66 records on April 28, 2014
WEATHER CONDITIONS BREAKOUT
WIND DIRECTION BREAKOUT
WEATHER BY HOUR - APRIL 28, 2014
[ °C ]   °F
Local TimeTemperatureDewpointHumidityBarometerVisibilityWind DirectionWind SpeedGust SpeedPrecipitationEventsConditions
12:35 AM41.2 °F25.2 °F53 %30.15 in10.0 miENE (70°)9.2 mphOvercast
12:54 AM41.5 °F24.8 °F51 %30.15 in10.0 miENE (60°)8.1 mphOvercast
1:15 AM41.9 °F24.3 °F50 %30.15 in10.0 miEast (80°)6.9 mphOvercast
1:34 AM42.4 °F23.4 °F47 %30.14 in10.0 miENE (70°)8.1 mph16.1 mphMostly Cloudy
1:54 AM42.8 °F22.6 °F45 %30.12 in10.0 miEast (90°)8.1 mphScattered Clouds
2:15 AM43.0 °F22.6 °F45 %30.10 in10.0 miENE (70°)12.7 mph20.7 mphClear
2:34 AM43.2 °F22.6 °F44 %30.11 in10.0 miEast (80°)12.7 mph21.9 mphClear
2:55 AM43.7 °F21.9 °F42 %30.12 in10.0 miEast (100°)13.8 mph18.4 mphMostly Cloudy
3:15 AM44.1 °F21.2 °F40 %30.13 in10.0 miEast (90°)11.5 mph18.4 mphMostly Cloudy
3:34 AM43.9 °F21.2 °F41 %30.11 in10.0 miEast (80°)18.4 mph25.3 mphOvercast
4:15 AM43.0 °F21.6 °F43 %30.14 in10.0 miEast (100°)17.3 mph32.2 mphOvercast
4:34 AM42.1 °F21.4 °F44 %30.14 in10.0 miEast (90°)15.0 mph27.6 mphOvercast
4:55 AM41.0 °F22.1 °F47 %30.14 in10.0 miEast (100°)19.6 mph33.4 mphMostly Cloudy
5:14 AM40.3 °F22.6 °F49 %30.13 in10.0 miEast (100°)13.8 mph31.1 mphScattered Clouds
5:34 AM39.6 °F22.5 °F50 %30.12 in10.0 miEast (100°)17.3 mph28.8 mphScattered Clouds
5:55 AM39.2 °F22.1 °F50 %30.12 in10.0 miEast (100°)12.7 mph28.8 mphClear
6:14 AM39.2 °F22.5 °F51 %30.12 in10.0 miEast (100°)15.0 mph27.6 mphMostly Cloudy
6:35 AM39.4 °F22.6 °F51 %30.12 in10.0 miEast (90°)17.3 mph28.8 mphOvercast
6:55 AM39.6 °F22.5 °F50 %30.14 in10.0 miEast (90°)17.3 mph27.6 mphOvercast
7:14 AM39.7 °F22.1 °F49 %30.14 in10.0 miEast (90°)16.1 mph25.3 mphOvercast
7:35 AM39.6 °F22.6 °F51 %30.14 in10.0 miEast (100°)17.3 mph31.1 mphOvercast
7:55 AM39.7 °F22.8 °F51 %30.15 in10.0 miEast (100°)19.6 mph31.1 mphOvercast
8:35 AM40.1 °F23.0 °F51 %30.14 in10.0 miEast (90°)15.0 mph31.1 mphOvercast
8:54 AM40.6 °F23.0 °F49 %30.13 in10.0 miEast (80°)21.9 mph34.5 mphScattered Clouds
9:14 AM40.3 °F23.2 °F51 %30.12 in10.0 miEast (90°)16.1 mph29.9 mphClear
9:35 AM41.2 °F23.5 °F50 %30.11 in10.0 miEast (90°)16.1 mph26.5 mphClear
9:54 AM42.3 °F23.7 °F48 %30.11 in10.0 miEast (80°)16.1 mph35.7 mphClear
10:15 AM43.9 °F23.9 °F45 %30.12 in10.0 miEast (90°)19.6 mph42.6 mphClear
10:54 AM46.8 °F23.9 °F41 %30.11 in10.0 miEast (90°)23.0 mph33.4 mphScattered Clouds
11:15 AM47.1 °F24.3 °F41 %30.10 in10.0 miEast (90°)20.7 mph34.5 mphScattered Clouds
11:35 AM47.5 °F24.1 °F40 %30.10 in10.0 miEast (90°)20.7 mph34.5 mphClear
11:54 AM49.6 °F24.6 °F38 %30.09 in10.0 miEast (90°)20.7 mph34.5 mphClear
12:15 PM50.4 °F24.6 °F37 %30.09 in10.0 miEast (100°)19.6 mph32.2 mphClear
12:34 PM50.7 °F24.4 °F36 %30.08 in10.0 miEast (90°)23.0 mph36.8 mphClear
12:54 PM50.5 °F25.0 °F37 %30.09 in10.0 miESE (110°)21.9 mph40.3 mphClear
1:15 PM50.9 °F24.8 °F36 %30.08 in10.0 miEast (90°)18.4 mph39.1 mphClear
1:34 PM48.7 °F24.3 °F38 %30.07 in10.0 miEast (90°)17.3 mph34.5 mphClear
1:55 PM48.2 °F23.9 °F39 %30.06 in10.0 miEast (90°)20.7 mph35.7 mphClear
2:15 PM48.4 °F24.3 °F39 %30.05 in10.0 miEast (90°)23.0 mph32.2 mphClear
2:34 PM49.3 °F24.1 °F37 %30.04 in10.0 miEast (80°)27.6 mph36.8 mphClear
2:55 PM49.1 °F23.5 °F37 %30.04 in10.0 miEast (80°)27.6 mph35.7 mphClear
3:15 PM48.9 °F22.1 °F35 %30.04 in10.0 miEast (90°)20.7 mph43.7 mphClear
3:55 PM50.0 °F21.2 °F32 %30.03 in10.0 miEast (90°)20.7 mph33.4 mphClear
4:14 PM50.9 °F23.2 °F34 %30.03 in10.0 miEast (80°)17.3 mph32.2 mphClear
4:34 PM49.8 °F23.0 °F35 %30.02 in10.0 miEast (90°)15.0 mph32.2 mphClear
5:14 PM49.5 °F23.5 °F36 %30.02 in10.0 miEast (90°)17.3 mph27.6 mphClear
5:35 PM50.0 °F23.5 °F36 %30.01 in10.0 miEast (80°)16.1 mph27.6 mphClear
5:55 PM49.1 °F23.0 °F36 %30.01 in10.0 miEast (80°)12.7 mph29.9 mphClear
6:14 PM48.6 °F23.2 °F37 %30.00 in10.0 miEast (80°)15.0 mph31.1 mphClear
6:35 PM48.2 °F23.0 °F37 %29.99 in10.0 miEast (90°)12.7 mph23.0 mphClear
6:54 PM48.2 °F23.2 °F37 %29.99 in10.0 miEast (90°)13.8 mph23.0 mphClear
7:14 PM47.5 °F23.7 °F39 %29.99 in10.0 miEast (80°)12.7 mph19.6 mphClear
7:34 PM47.3 °F23.7 °F40 %29.98 in10.0 miEast (80°)13.8 mph27.6 mphClear
7:54 PM47.3 °F23.9 °F40 %29.96 in10.0 miEast (90°)15.0 mph23.0 mphScattered Clouds
8:15 PM46.8 °F23.9 °F41 %29.95 in10.0 miEast (80°)12.7 mph21.9 mphClear
8:34 PM46.8 °F24.3 °F41 %29.93 in10.0 miENE (70°)15.0 mph21.9 mphClear
8:55 PM46.2 °F24.3 °F42 %29.93 in10.0 miENE (70°)12.7 mph21.9 mphClear
9:15 PM46.0 °F24.4 °F43 %29.93 in10.0 miENE (70°)10.4 mph19.6 mphClear
9:34 PM46.0 °F24.4 °F43 %29.94 in10.0 miENE (70°)11.5 mph18.4 mphClear
9:55 PM46.6 °F24.6 °F42 %29.95 in10.0 miENE (70°)11.5 mph18.4 mphClear
10:15 PM46.4 °F24.8 °F43 %29.96 in10.0 miENE (70°)9.2 mph18.4 mphClear
10:34 PM46.6 °F24.6 °F42 %29.96 in10.0 miENE (70°)12.7 mph20.7 mphClear
10:55 PM46.9 °F24.8 °F42 %29.95 in10.0 miENE (70°)11.5 mph21.9 mphClear
11:14 PM47.1 °F24.8 °F42 %29.94 in10.0 miENE (70°)15.0 mph20.7 mphClear
11:35 PM46.8 °F24.8 °F42 %29.95 in10.0 miENE (70°)10.4 mph16.1 mphClear
11:55 PM46.8 °F24.8 °F42 %29.95 in10.0 miNorthClear
Hourly data recorded from KISQ, located miles away from Manistique, Michigan







STORIES FROM OUR PARTNERS